User: anonymous   Login
Location: Unspecified
(0.0000°N, 0.0000°E)
Time: 07:07:02
(UTC+00:00)
Language:

IGS 7A - Orbit

View from above orbital plane
View from above orbital plane
View from above satellite
View from above satellite

Ground track
Ground track

The orbit data is extracted from the following two-line orbital elements,

1 37954U 11075A   24111.89881617 0.00000000  00000-0  00000-0 0    02
2 37954  97.4230 187.9681 0002894 331.9206  28.0793 15.17649608    08
Epoch (UTC): 20 April 2024 21:34:17
Eccentricity: 0.0002894
inclination: 97.4230°
perigee height: 511 km
apogee height: 515 km
right ascension of ascending node: 187.9681°
argument of perigee: 331.9206°
revolutions per day: 15.17649608
mean anomaly at epoch: 28.0793°
orbit number at epoch: 0

The dashed part of the orbit path shows where the satellite is in the earth's shadow,  

DLR